[[{"header":{"parameterUnit":"m.s-1","parameterCategory":1,"la1":30.2991,"la2":30.254,"lo1":-89.0895,"lo2":-89.0444,"dy":0.0017,"dx":0.0017,"nx":28,"ny":28,"refTime":"2023-09-19T21:00:00:Z","depth":0,"parameterNumber":2,"parameterNumberName":"U-component_of_WINDS"},"data":[0,0,0,0,0,0,0,0,0,0,0,0,0,0,0,0,0,0,0,0,0,0,0,0,0,0,0,0,0,0,0,0,0,0,0,0,0,0,0,0,0,0,0,0,0,0,0,0,0,0,0,0,0,0,0,0,0,0,-2.3551,-2.3552,0,-2.3592,-2.3593,-2.3593,-2.354,-2.3538,-2.3536,-2.3534,-2.3579,-2.3582,-2.3585,0,0,0,0,0,0,0,0,0,0,0,0,0,-2.343,-2.3432,-2.3551,-2.3552,-2.3552,-2.3592,-2.3593,-2.3593,-2.354,-2.3538,-2.3535,-2.3533,-2.3578,-2.3581,-2.3585,0,0,0,0,0,0,0,0,0,0,0,0,0,-2.3478,-2.3433,-2.3551,-2.3531,-2.3529,-2.3592,-2.3593,-2.3593,-2.3541,-2.3538,-2.3535,-2.3532,-2.3577,-2.3581,-2.3586,-2.3671,0,0,-2.3599,-2.3601,0,0,0,0,0,0,0,0,-2.3475,-2.3482,-2.3533,-2.3532,-2.3531,-2.3558,-2.3566,-2.362,-2.3541,-2.3536,-2.3534,-2.3531,-2.3574,-2.3579,-2.3593,-2.3674,-2.3675,-2.36,-2.3602,-2.3604,-2.3606,0,0,0,0,0,0,0,-2.3472,-2.348,-2.3567,-2.3534,-2.3532,-2.352,-2.3524,-2.3576,-2.3571,-2.3537,-2.3533,-2.3538,-2.3573,-2.3589,-2.3594,-2.3676,-2.36,-2.3604,-2.3606,-2.3608,-2.3829,-2.3832,0,0,0,0,0,0,-2.3471,-2.3478,-2.3566,-2.3569,-2.3495,-2.3525,-2.3529,-2.3552,-2.3571,-2.3571,-2.3541,-2.3536,-2.3583,-2.3589,-2.3595,-2.3696,-2.3604,-2.3609,-2.3611,-2.3825,-2.3829,-2.3833,0,0,0,0,0,0,-2.3468,-2.3479,-2.3565,-2.3522,-2.3532,-2.353,-2.3557,-2.3554,-2.357,-2.3574,-2.3573,-2.3557,-2.3581,-2.3589,-2.3652,-2.3697,-2.3611,-2.3615,-2.3822,-2.3827,-2.3831,-2.39,0,0,0,0,0,0,-2.3465,-2.3478,-2.3511,-2.3523,-2.3535,-2.3621,-2.3559,-2.3557,-2.3577,-2.3571,-2.3589,-2.3589,-2.3579,-2.3646,-2.3657,-2.3702,-2.3618,-2.3818,-2.3824,-2.3829,-2.3893,-2.3906,-2.3917,0,0,0,0,0,-2.3461,-2.3529,-2.3512,-2.3523,-2.3575,-2.3623,-2.363,-2.3616,-2.3581,-2.3614,-2.3616,-2.3589,-2.3691,-2.3653,-2.3665,-2.3712,-2.3815,-2.3822,-2.3829,-2.3888,-2.3904,-2.3917,0,0,0,0,0,0,-2.3523,-2.353,-2.3512,-2.3586,-2.3605,-2.3614,-2.3655,-2.3633,-2.3662,-2.3655,-2.3637,-2.3642,-2.371,-2.3717,-2.3675,-2.3795,-2.3747,-2.3757,-2.3788,-2.3803,-2.3814,-2.3811,-2.3622,0,0,0,0,0,-2.3545,-2.3583,-2.3588,-2.3653,-2.3663,-2.3658,-2.3678,-2.3666,-2.3684,-2.3692,-2.3699,-2.3719,-2.3755,-2.3779,-2.3813,-2.3894,-2.3897,-2.3932,-2.3944,-2.3954,-2.3962,-2.4005,-2.4021,-2.3856,-2.3856,-2.3856,0,0,-2.3592,-2.36,-2.3626,-2.3666,-2.3678,-2.3719,-2.3665,-2.371,-2.374,-2.3699,-2.3759,-2.3765,-2.3786,-2.3859,-2.3891,-2.3867,-2.4009,-2.3963,-2.3971,-2.3974,-2.4014,-2.403,-2.4044,-2.3861,-2.386,-2.3859,0,0,-2.3697,-2.3708,-2.3762,-2.3776,-2.3795,-2.3791,-2.3804,-2.3817,-2.3819,-2.3879,-2.3849,-2.3885,-2.3948,-2.3964,-2.398,-2.4091,-2.4066,-2.4102,-2.4164,-2.4206,-2.4219,-2.423,-2.4269,-2.4284,-2.4111,-2.4111,-2.4111,0,-2.3752,-2.3811,-2.3794,-2.3841,-2.3859,-2.3823,-2.3879,-2.3893,-2.3923,-2.3937,-2.3909,-2.3987,-2.3999,-2.4074,-2.4101,-2.4116,-2.413,-2.41,-2.4218,-2.423,-2.424,-2.4277,-2.4292,-2.4115,-2.4115,-2.4114,-2.4114,0,-2.3878,-2.392,-2.3962,-2.399,-2.4013,-2.4064,-2.4055,-2.4081,-2.4067,-2.4066,-2.4127,-2.4139,-2.4175,-2.4192,-2.4179,-2.4266,-2.425,-2.4221,-2.4172,-2.426,-2.4295,-2.4309,-2.4121,-2.412,-2.4119,-2.4118,0,0,-2.4024,-2.4041,-2.4057,-2.4068,-2.4087,-2.4119,-2.4168,-2.4202,-2.4224,-2.4246,-2.4287,-2.4341,-2.4314,-2.4333,-2.4321,-2.4358,-2.4444,-2.4324,-2.4325,-2.4346,-2.454,-2.4561,-2.4578,-2.4428,-2.4431,-2.4433,-2.4538,0,-2.4128,-2.4213,-2.4198,-2.428,-2.4318,-2.4284,-2.4328,-2.4344,-2.4344,-2.4377,-2.4378,-2.4416,-2.4378,-2.4388,-2.4424,-2.4426,-2.4483,-2.4419,-2.4467,-2.4469,-2.4462,-2.4596,-2.4619,-2.4717,-2.4551,-2.4554,-2.4555,0,-2.4261,-2.4286,-2.4372,-2.4383,-2.4399,-2.4438,-2.4467,-2.4498,-2.4516,-2.4514,-2.4534,-2.4516,-2.4566,-2.4516,-2.4585,-2.4542,-2.4561,-2.4565,-2.4569,-2.4572,-2.4517,-2.4603,-2.4748,-2.4763,-2.4576,-2.4575,-2.4573,0,-2.4358,-2.4414,-2.4471,-2.4483,-2.4498,-2.4526,-2.4534,-2.4549,-2.4569,-2.4595,-2.4608,-2.464,-2.4658,-2.4683,-2.4674,-2.4639,-2.4745,-2.4695,-2.4745,-2.4745,-2.4768,-2.4767,-2.4918,-2.4782,-2.4781,-2.4781,-2.4781,0,-2.4476,-2.453,-2.4515,-2.4551,-2.461,-2.4593,-2.4652,-2.4656,-2.4669,-2.4706,-2.4679,-2.4714,-2.47,-2.4735,-2.4728,-2.4786,-2.4794,-2.4794,-2.4791,-2.4796,-2.4796,-2.4808,-2.4801,-2.4785,-2.4784,-2.4783,-2.4783,0,-2.4594,-2.4586,-2.4647,-2.4656,-2.4659,-2.4702,-2.471,-2.4744,-2.4742,-2.4788,-2.4798,-2.4796,-2.4834,-2.4828,-2.4871,-2.4867,-2.4939,-2.4928,-2.4932,-2.493,-2.498,-2.4975,-2.5144,-2.5165,-2.5015,-2.5017,-2.5018,0,-2.4669,-2.4709,-2.4722,-2.4743,-2.4753,-2.4789,-2.4809,-2.4794,-2.4817,-2.484,-2.4871,-2.4907,-2.4935,-2.4999,-2.5002,-2.5035,-2.5025,-2.5081,-2.5029,-2.5033,-2.5025,-2.5022,-2.5026,-2.5092,-2.5093,-2.5095,-2.5096,0,-2.4804,-2.4798,-2.4827,-2.4856,-2.4881,-2.4903,-2.4923,-2.4942,-2.4929,-2.4956,-2.4995,-2.5016,-2.506,-2.5096,-2.5127,-2.5136,-2.5114,-2.5112,-2.5125,-2.513,-2.5131,-2.513,-2.496,-2.5108,-2.5107,-2.5106,-2.5106,-2.5105,-2.4902,-2.4936,-2.495,-2.4984,-2.4996,-2.5015,-2.5047,-2.5048,-2.508,-2.5113,-2.5103,-2.5147,-2.5163,-2.5202,-2.5215,-2.5249,-2.5228,-2.5248,-2.5252,-2.5257,-2.5263,-2.5125,-2.5255,-2.5255,-2.5254,-2.5254,-2.5254,0,-2.5035,-2.5042,-2.5073,-2.51,-2.5127,-2.5103,-2.5123,-2.5148,-2.5186,-2.5203,-2.523,-2.5275,-2.531,-2.5315,-2.5348,-2.5375,-2.5366,-2.5384,-2.5382,-2.5384,-2.528,-2.5265,-2.5391,-2.5391,-2.5391,-2.5391,-2.5391,-2.5391,-2.5107,-2.5162,-2.5158,-2.5219,-2.5226,-2.5268,-2.5281,-2.5299,-2.5312,-2.5362,-2.539,-2.5392,-2.5405,-2.5439,-2.547,-2.547,-2.5484,-2.5506,-2.5503,-2.5405,-2.5392,-2.5379,-2.5364,-2.5509,-2.551,-2.5604,-2.5605,-2.5606]},{"header":{"parameterUnit":"m.s-1","parameterCategory":1,"la1":30.2991,"la2":30.254,"lo1":-89.0895,"lo2":-89.0444,"dy":0.0017,"dx":0.0017,"nx":28,"ny":28,"refTime":"2023-09-19T21:00:00:Z","depth":0,"parameterNumber":3,"parameterNumberName":"V-component_of_WINDS"},"data":[0,0,0,0,0,0,0,0,0,0,0,0,0,0,0,0,0,0,0,0,0,0,0,0,0,0,0,0,0,0,0,0,0,0,0,0,0,0,0,0,0,0,0,0,0,0,0,0,0,0,0,0,0,0,0,0,0,0,3.7281,3.7281,0,3.728,3.728,3.728,3.7227,3.7226,3.7225,3.7223,3.7222,3.7223,3.7224,0,0,0,0,0,0,0,0,0,0,0,0,0,3.7235,3.7236,3.7281,3.7281,3.7281,3.728,3.728,3.728,3.7228,3.7226,3.7224,3.7223,3.7222,3.7223,3.7224,0,0,0,0,0,0,0,0,0,0,0,0,0,3.7247,3.7237,3.7281,3.7255,3.7252,3.728,3.728,3.728,3.7228,3.7226,3.7224,3.7222,3.7221,3.7223,3.7225,3.7277,0,0,3.723,3.7231,0,0,0,0,0,0,0,0,3.7246,3.7248,3.7258,3.7256,3.7254,3.7252,3.7263,3.7279,3.7228,3.7237,3.7223,3.7221,3.7233,3.7234,3.7239,3.7277,3.7277,3.7231,3.7232,3.7232,3.7233,0,0,0,0,0,0,0,3.7245,3.7248,3.728,3.7259,3.7256,3.7242,3.7242,3.7266,3.7247,3.7236,3.7232,3.7233,3.7232,3.7237,3.7238,3.7277,3.723,3.7232,3.7233,3.7234,3.7356,3.7358,0,0,0,0,0,0,3.7248,3.7248,3.728,3.728,3.7245,3.7245,3.7244,3.7254,3.7246,3.7243,3.7235,3.7231,3.7235,3.7236,3.7238,3.7296,3.7232,3.7234,3.7235,3.7354,3.7356,3.7359,0,0,0,0,0,0,3.7248,3.7252,3.728,3.7263,3.7266,3.7248,3.726,3.7256,3.726,3.7245,3.7242,3.7244,3.7233,3.7235,3.7267,3.7295,3.7235,3.7237,3.7351,3.7355,3.7357,3.7415,0,0,0,0,0,0,3.7247,3.7252,3.7272,3.7264,3.7267,3.7311,3.7262,3.7257,3.7264,3.7258,3.7253,3.725,3.7232,3.7265,3.7269,3.7297,3.7238,3.7349,3.7353,3.7356,3.741,3.7419,3.7427,0,0,0,0,0,3.7245,3.7289,3.7273,3.7278,3.7292,3.7312,3.7314,3.7292,3.7267,3.7286,3.7276,3.725,3.7292,3.7268,3.7273,3.7302,3.7347,3.7352,3.7356,3.7406,3.7418,3.7427,0,0,0,0,0,0,3.7301,3.7287,3.727,3.7313,3.7314,3.7303,3.7327,3.7306,3.7314,3.7309,3.7282,3.7281,3.7316,3.7313,3.7286,3.7351,3.7315,3.7321,3.7351,3.7362,3.737,3.7369,3.724,0,0,0,0,0,3.7318,3.7336,3.7324,3.7362,3.7364,3.7346,3.7354,3.7337,3.7337,3.7338,3.733,3.7331,3.7344,3.7353,3.7365,3.741,3.7407,3.7432,3.7441,3.7448,3.7452,3.7473,3.7483,3.7374,3.7374,3.7374,0,0,3.7354,3.7349,3.7362,3.7373,3.7372,3.739,3.7346,3.7368,3.7381,3.7341,3.7369,3.7364,3.7364,3.7402,3.7418,3.7399,3.7482,3.7454,3.746,3.746,3.7479,3.7489,3.7499,3.7378,3.7377,3.7376,0,0,3.7427,3.7427,3.7457,3.7457,3.7456,3.7444,3.7451,3.7444,3.7438,3.7467,3.7436,3.7452,3.7476,3.7475,3.7478,3.7551,3.7526,3.7556,3.76,3.762,3.7629,3.7636,3.7659,3.7667,3.7561,3.7561,3.7561,0,3.7472,3.7498,3.7476,3.7499,3.7503,3.7468,3.7498,3.7499,3.7502,3.7506,3.7485,3.7513,3.7511,3.7546,3.7564,3.7569,3.7575,3.7555,3.7629,3.7636,3.7643,3.7664,3.7673,3.7564,3.7564,3.7564,3.7563,0,3.7551,3.757,3.7594,3.7597,3.7605,3.7632,3.7612,3.7623,3.7606,3.7595,3.7624,3.7619,3.7628,3.7636,3.762,3.7669,3.7657,3.7634,3.7597,3.7657,3.7676,3.7685,3.7569,3.7568,3.7567,3.7566,0,0,3.7658,3.7647,3.7656,3.7656,3.7652,3.7666,3.769,3.7698,3.7707,3.7711,3.7728,3.7749,3.7727,3.773,3.7714,3.7733,3.7786,3.7706,3.7706,3.7718,3.7837,3.7852,3.7862,3.7771,3.7773,3.7774,3.7836,0,3.7726,3.7766,3.7746,3.7788,3.7804,3.7771,3.7792,3.7791,3.7782,3.7793,3.7784,3.7797,3.7768,3.777,3.7787,3.7776,3.7809,3.7772,3.7785,3.7786,3.7783,3.7872,3.7889,3.7947,3.7843,3.7845,3.7846,0,3.7811,3.7816,3.786,3.7851,3.7856,3.7875,3.788,3.7892,3.789,3.7882,3.7886,3.7865,3.7887,3.7853,3.7881,3.7856,3.7861,3.7857,3.7858,3.7856,3.7817,3.7869,3.7966,3.7973,3.7858,3.7857,3.7856,0,3.788,3.7899,3.7926,3.7928,3.7919,3.7932,3.7929,3.7925,3.7931,3.7936,3.7938,3.7946,3.795,3.7956,3.7937,3.7914,3.7967,3.7932,3.7959,3.7959,3.7969,3.7968,3.8064,3.7978,3.7978,3.7978,3.7977,0,3.7956,3.7983,3.7957,3.7973,3.8002,3.7979,3.8008,3.8002,3.7998,3.8012,3.7986,3.7999,3.7975,3.7986,3.7972,3.7996,3.7999,3.7992,3.7987,3.7992,3.7992,3.7992,3.7986,3.798,3.7979,3.7979,3.7979,0,3.8037,3.8021,3.8048,3.8037,3.8035,3.8056,3.8046,3.8061,3.805,3.8068,3.8071,3.8054,3.8065,3.8048,3.8058,3.8048,3.8081,3.8072,3.8081,3.8077,3.8103,3.81,3.82,3.821,3.8121,3.8122,3.8123,0,3.8084,3.8104,3.8095,3.8102,3.81,3.8113,3.8118,3.8096,3.8103,3.8101,3.8115,3.8125,3.813,3.815,3.8138,3.8145,3.8134,3.8169,3.8135,3.8138,3.813,3.8128,3.8128,3.8174,3.8175,3.8176,3.8177,0,3.817,3.816,3.8169,3.8174,3.8181,3.8184,3.8186,3.8193,3.817,3.8179,3.819,3.8194,3.8204,3.8212,3.8216,3.8212,3.819,3.8188,3.8194,3.8198,3.8201,3.8196,3.8096,3.8185,3.8184,3.8184,3.8183,3.8183,3.8233,3.8248,3.8243,3.8252,3.8251,3.8253,3.8265,3.8255,3.8264,3.8269,3.8257,3.827,3.8266,3.8269,3.8268,3.8277,3.8262,3.8272,3.8273,3.8275,3.8278,3.8202,3.8279,3.8278,3.8278,3.8278,3.8278,0,3.8314,3.8309,3.8318,3.832,3.8327,3.8307,3.8307,3.8314,3.8326,3.8325,3.8331,3.8342,3.835,3.8339,3.8345,3.8355,3.8345,3.8357,3.8354,3.8353,3.8293,3.8285,3.8364,3.8364,3.8364,3.8364,3.8364,3.8364,3.8356,3.8379,3.8369,3.8391,3.8386,3.8398,3.8399,3.84,3.8398,3.8412,3.8419,3.8411,3.8405,3.841,3.8416,3.8413,3.8415,3.843,3.8422,3.8366,3.8357,3.8349,3.8342,3.8431,3.8431,3.8481,3.8481,3.8482]}]]